Regional Weather Roundup
Issued by NWS Huntsville, AL

Home | Current Version | Previous Version | Text Only | Print | Product List | Glossary On
Versions: 1 2 3 4 5 6 7 8 9 10 11 12 13 14 15 16 17 18 19 20 21 22 23 24 25 26 27 28 29 30 31 32 33 34 35 36 37 38 39 40 41 42 43 44 45 46 47 48 49 50
000
ASUS44 KHUN 261010
RWRHUN

WEATHER ROUNDUP FOR THE TENNESSEE VALLEY
NATIONAL WEATHER SERVICE HUNTSVILLE AL
400 AM CST FRI DEC 26 2014

ALZ001>004-261100-
NORTHWEST ALABAMA

CITY           SKY/WX    TMP DP  RH WIND       PRES   REMARKS
COURTLAND HCN    N/A     30 N/A N/A CALM        N/A
RUSSELLVILLE     N/A     32 N/A N/A MISG        N/A
SHOALS AIRPORT PTCLDY    34  30  85 CALM      30.27R
SHOALS TVA RES   N/A     32 N/A N/A MISG        N/A
$$

ALZ005>007-016-261100-
NORTH CENTRAL ALABAMA

CITY           SKY/WX    TMP DP  RH WIND       PRES   REMARKS
CULLMAN AG STN   N/A     30 N/A N/A CALM        N/A
DECATUR AP     PTCLDY    32  30  92 CALM      30.26S
HUNTSVILLE AP  PTCLDY    37  32  82 E3        30.25S
HUN NWS/UAH      N/A     34  31  90 CALM        N/A
MERIDIANVILLE  PTCLDY    30  28  93 CALM      30.24F
REDSTONE ARSN  PTCLDY    34  34 100 N1        30.24F
VINEMONT AP    FAIR      32  31  97 CALM      30.27R
$$

ALZ008>010-261100-
NORTHEAST ALABAMA

CITY           SKY/WX    TMP DP  RH WIND       PRES   REMARKS
ALBERTVILLE    PTCLDY    34  34 100 NE3       30.23R
FORT PAYNE     PTCLDY    28  27  93 CALM      30.25S
SCOTTSBORO AP  FOG       32  32 100 NE3       30.27F VSB 1/4
VALLEY HEAD      N/A     28 N/A N/A MISG        N/A
$$

TNZ076-096-097-261100-
SOUTHEASTERN MIDDLE TENNESSEE

CITY           SKY/WX    TMP DP  RH WIND       PRES   REMARKS
TULLAHOMA      CLEAR     28  27  93 CALM      30.24F
WINCHESTER     CLEAR     28  27  93 CALM      30.25F
$$

...SURROUNDING SITES...

CITY           SKY/WX    TMP DP  RH WIND       PRES   REMARKS
ATLANTA        MOCLDY    36  33  89 CALM      30.25R
ANNISTON       MOCLDY    35  32  88 NE3       30.26R
BIRMINGHAM     MOCLDY    37  34  89 CALM      30.26R
CHATTANOOGA    FOG       32  32 100 NE3       30.28F VSB 1/4
CORINTH        FAIR      34  34 100 SE5       30.24R WCI  30
DALTON         FOG       30  30 100 CALM      30.27F VSB 1/4
GADSDEN        MOCLDY    28  25  86 CALM      30.26R
GOLDEN TRNGL   PTCLDY    36  34  93 CALM      30.25R
HALEYVILLE     FAIR      29  29 100 CALM      30.27R
JACKSON TN     CLOUDY    41  34  76 S6        30.21R
LEWISBURG      FAIR      27  25  92 CALM      30.24F
MEMPHIS        MOCLDY    43  35  73 S8        30.18S
MURFREESBORO   FAIR      31  30  96 CALM      30.24F
NASHVILLE      PTCLDY    33  31  92 CALM      30.25S
OXFORD MS      FAIR      37  32  81 S5        30.24R WCI  34
ROME           CLOUDY    29  28  96 N3        30.27S FOG
SAVANNAH       CLEAR     37  34  87 S5        30.24R WCI  34
TUPELO         PTCLDY    36  33  89 MISG      30.24R
TUSCALOOSA     PTCLDY    35  33  92 CALM      30.26R
$$

...GULF COAST WEATHER...

CITY           SKY/WX    TMP DP  RH WIND       PRES   REMARKS
GULFPORT       PTCLDY    42  41  96 N3        30.18F
PASCAGOULA     PTCLDY    36  35  96 CALM      30.18F
MOBILE         PTCLDY    41  39  93 CALM      30.20F
GULF SHORES    MOSUNNY   42  40  93 CALM      30.20S
DESTIN         MOCLDY    48  39  71 E7        30.22F
PANAMA CITY    PTCLDY    45  44  95 E5        30.23F
APPALACHICOLA  PTCLDY    46  40  79 NE8       30.23S
$$



USA.gov is the U.S. government's official web portal to all federal, state and local government web resources and services.